When you browse on this site, cookies collect data to enhance your experience and personalize the content and advertising you see.
Visit our Privacy Policy to learn more. By continuing to use the site, you agree to this use of cookies and data.
  • In Latvia
  • List of Countries
  • For 7 days
  • Water Temperature
  • Weather Map
  • Weather Widgets
  • user-avatar
    Login

    Hourly Weather Gundorovskiy

    Today, 22 November, Friday

    Time Temperature Precipitation Wind Pressure Humidity
    00:00 -13°C° 0 mm 8 mps 775 mmHg 34%
    01:00 -13°C° 0 mm 8 mps 774 mmHg 37%
    02:00 -13°C° 0 mm 8 mps 774 mmHg 40%
    03:00 -14°C° 0 mm 7 mps 775 mmHg 42%
    04:00 -15°C° 0 mm 8 mps 775 mmHg 45%
    05:00 -15°C° 0 mm 8 mps 775 mmHg 48%
    06:00 -15°C° 0 mm 8 mps 775 mmHg 51%
    07:00 -15°C° 0 mm 8 mps 774 mmHg 51%
    08:00 -13°C° 0 mm 8 mps 774 mmHg 50%
    09:00 -12°C° 0 mm 8 mps 775 mmHg 48%
    10:00 -11°C° 0 mm 8 mps 775 mmHg 44%
    11:00 -10°C° 0 mm 9 mps 775 mmHg 40%
    12:00 -8°C° 0 mm 9 mps 775 mmHg 36%
    13:00 -8°C° 0 mm 9 mps 774 mmHg 34%
    14:00 -8°C° 0 mm 9 mps 773 mmHg 33%
    15:00 -7°C° 0 mm 8 mps 773 mmHg 32%
    16:00 -8°C° 0 mm 8 mps 773 mmHg 34%
    17:00 -10°C° 0 mm 8 mps 773 mmHg 37%
    18:00 -9°C° 0 mm 7 mps 773 mmHg 39%
    19:00 -11°C° 0 mm 7 mps 773 mmHg 38%
    20:00 -11°C° 0 mm 7 mps 773 mmHg 37%
    21:00 -11°C° 0 mm 7 mps 773 mmHg 36%
    22:00 -11°C° 0 mm 7 mps 773 mmHg 37%
    23:00 -12°C° 0 mm 7 mps 773 mmHg 38%

    Tomorrow, 23 November, Saturday

    Time Temperature Precipitation Wind Pressure Humidity
    00:00 -12°C° 0 mm 7 mps 773 mmHg 38%
    01:00 -12°C° 0 mm 7 mps 773 mmHg 40%
    02:00 -12°C° 0 mm 7 mps 772 mmHg 41%
    03:00 -12°C° 0 mm 7 mps 772 mmHg 42%
    04:00 -12°C° 0 mm 7 mps 772 mmHg 43%
    05:00 -12°C° 0 mm 7 mps 772 mmHg 43%
    06:00 -11°C° 0 mm 6 mps 771 mmHg 43%
    07:00 -12°C° 0 mm 7 mps 772 mmHg 41%
    08:00 -11°C° 0 mm 7 mps 772 mmHg 40%
    09:00 -11°C° 0 mm 7 mps 772 mmHg 38%
    10:00 -8°C° 0 mm 7 mps 772 mmHg 37%
    11:00 -7°C° 0 mm 7 mps 771 mmHg 36%
    12:00 -4°C° 0 mm 7 mps 771 mmHg 34%
    13:00 -4°C° 0 mm 7 mps 770 mmHg 33%
    14:00 -4°C° 0 mm 7 mps 770 mmHg 32%
    15:00 -3°C° 0 mm 7 mps 770 mmHg 31%
    16:00 -4°C° 0 mm 7 mps 770 mmHg 33%
    17:00 -6°C° 0 mm 7 mps 769 mmHg 35%
    18:00 -6°C° 0 mm 6 mps 769 mmHg 37%
    19:00 -8°C° 0 mm 6 mps 770 mmHg 38%
    20:00 -8°C° 0 mm 6 mps 770 mmHg 39%
    21:00 -8°C° 0 mm 6 mps 770 mmHg 40%
    22:00 -8°C° 0 mm 6 mps 770 mmHg 42%
    23:00 -8°C° 0 mm 6 mps 769 mmHg 44%

    Day after tomorrow, 24 November, Sunday

    Time Temperature Precipitation Wind Pressure Humidity
    00:00 -8°C° 0 mm 6 mps 769 mmHg 45%
    01:00 -8°C° 0 mm 6 mps 769 mmHg 47%
    02:00 -9°C° 0 mm 6 mps 769 mmHg 49%
    03:00 -9°C° 0 mm 6 mps 769 mmHg 50%
    04:00 -9°C° 0 mm 6 mps 769 mmHg 52%
    05:00 -9°C° 0 mm 6 mps 768 mmHg 53%
    06:00 -9°C° 0 mm 6 mps 768 mmHg 55%
    07:00 -8°C° 0 mm 7 mps 768 mmHg 55%
    08:00 -7°C° 0 mm 7 mps 769 mmHg 55%
    09:00 -7°C° 0 mm 7 mps 769 mmHg 55%
    10:00 -4°C° 0 mm 7 mps 769 mmHg 53%
    11:00 -4°C° 0 mm 8 mps 768 mmHg 51%
    12:00 -1°C° 0 mm 8 mps 768 mmHg 50%
    13:00 -1°C° 0 mm 8 mps 768 mmHg 50%
    14:00 -1°C° 0 mm 7 mps 767 mmHg 49%
    15:00 -1°C° 0 mm 7 mps 767 mmHg 49%
    16:00 -2°C° 0 mm 7 mps 767 mmHg 50%
    17:00 -3°C° 0 mm 7 mps 767 mmHg 50%
    18:00 -4°C° 0 mm 7 mps 767 mmHg 51%
    19:00 -4°C° 0 mm 7 mps 767 mmHg 51%
    20:00 -6°C° 0 mm 7 mps 767 mmHg 52%
    21:00 -6°C° 0 mm 7 mps 767 mmHg 53%
    22:00 -6°C° 0 mm 7 mps 767 mmHg 54%
    23:00 -5°C° 0 mm 6 mps 767 mmHg 56%

    25 November, Monday

    Time Temperature Precipitation Wind Pressure Humidity
    00:00 -5°C° 0 mm 6 mps 766 mmHg 58%
    01:00 -5°C° 0 mm 6 mps 766 mmHg 59%
    02:00 -5°C° 0 mm 6 mps 766 mmHg 61%
    03:00 -5°C° 0 mm 6 mps 766 mmHg 62%
    04:00 -6°C° 0 mm 6 mps 766 mmHg 64%
    05:00 -6°C° 0 mm 6 mps 765 mmHg 65%
    06:00 -6°C° 0 mm 6 mps 765 mmHg 66%
    07:00 -5°C° 0 mm 6 mps 765 mmHg 65%
    08:00 -6°C° 0 mm 7 mps 765 mmHg 64%
    09:00 -4°C° 0 mm 7 mps 766 mmHg 63%
    10:00 -3°C° 0 mm 7 mps 765 mmHg 61%
    11:00 -2°C° 0 mm 7 mps 765 mmHg 60%
    12:00 0°C° 0 mm 7 mps 765 mmHg 58%
    13:00 0°C° 0 mm 7 mps 764 mmHg 57%
    14:00 0°C° 0 mm 7 mps 764 mmHg 57%
    15:00 +2°C° 0 mm 7 mps 764 mmHg 56%
    16:00 0°C° 0 mm 7 mps 764 mmHg 56%
    17:00 -1°C° 0 mm 7 mps 764 mmHg 56%
    18:00 -2°C° 0 mm 7 mps 764 mmHg 56%
    19:00 -2°C° 0 mm 7 mps 763 mmHg 58%
    20:00 -2°C° 0 mm 7 mps 763 mmHg 60%
    21:00 -2°C° 0 mm 7 mps 763 mmHg 61%
    22:00 -2°C° 0 mm 7 mps 763 mmHg 65%
    23:00 -3°C° 0 mm 7 mps 763 mmHg 69%

    26 November, Tuesday

    Time Temperature Precipitation Wind Pressure Humidity
    00:00 -3°C° 0 mm 7 mps 762 mmHg 73%
    01:00 -3°C° 0 mm 7 mps 762 mmHg 76%
    02:00 -3°C° 0 mm 7 mps 762 mmHg 79%
    03:00 -3°C° 0 mm 7 mps 762 mmHg 82%
    04:00 -3°C° 0 mm 7 mps 762 mmHg 83%
    05:00 -3°C° 0 mm 7 mps 761 mmHg 84%
    06:00 -3°C° 0 mm 7 mps 761 mmHg 85%
    07:00 -3°C° 0 mm 7 mps 761 mmHg 84%
    08:00 -2°C° 0 mm 7 mps 761 mmHg 83%
    09:00 -2°C° 0 mm 7 mps 761 mmHg 82%
    10:00 -1°C° 0 mm 7 mps 761 mmHg 77%
    11:00 0°C° 0 mm 8 mps 761 mmHg 73%
    12:00 +2°C° 0 mm 8 mps 761 mmHg 68%
    13:00 +2°C° 0 mm 8 mps 760 mmHg 67%
    14:00 +2°C° 0 mm 8 mps 760 mmHg 65%
    15:00 +4°C° 0 mm 8 mps 759 mmHg 64%
    16:00 +2°C° 0 mm 8 mps 759 mmHg 65%
    17:00 +1°C° 0 mm 8 mps 759 mmHg 66%
    18:00 +1°C° 0 mm 8 mps 759 mmHg 67%
    19:00 +1°C° 0 mm 8 mps 759 mmHg 67%
    20:00 +1°C° 0 mm 8 mps 759 mmHg 68%
    21:00 +1°C° 0 mm 8 mps 759 mmHg 68%
    22:00 0°C° 0 mm 8 mps 759 mmHg 72%
    23:00 0°C° 0 mm 8 mps 759 mmHg 75%

    27 November, Wednesday

    Time Temperature Precipitation Wind Pressure Humidity
    00:00 0°C° 0 mm 7 mps 758 mmHg 78%
    01:00 0°C° 0 mm 7 mps 758 mmHg 80%
    02:00 0°C° 0 mm 7 mps 758 mmHg 81%
    03:00 0°C° 0 mm 8 mps 758 mmHg 82%
    04:00 0°C° 0 mm 7 mps 758 mmHg 82%
    05:00 -1°C° 0 mm 7 mps 758 mmHg 82%
    06:00 -1°C° 0 mm 6 mps 758 mmHg 82%
    07:00 -1°C° 0 mm 6 mps 758 mmHg 81%
    08:00 -1°C° 0 mm 6 mps 758 mmHg 80%
    09:00 0°C° 0 mm 7 mps 758 mmHg 79%
    10:00 +2°C° 0 mm 7 mps 758 mmHg 76%
    11:00 +3°C° 0 mm 7 mps 758 mmHg 73%
    12:00 +4°C° 0 mm 7 mps 757 mmHg 71%
    13:00 +4°C° 0 mm 6 mps 757 mmHg 71%
    14:00 +4°C° 0 mm 6 mps 757 mmHg 72%
    15:00 +4°C° 0 mm 6 mps 757 mmHg 72%
    16:00 +4°C° 0 mm 6 mps 757 mmHg 73%
    17:00 +4°C° 0 mm 6 mps 757 mmHg 74%
    18:00 +4°C° 0 mm 6 mps 757 mmHg 75%
    19:00 +4°C° 0 mm 6 mps 757 mmHg 75%
    20:00 +4°C° 0 mm 6 mps 757 mmHg 75%
    21:00 +4°C° 0 mm 6 mps 757 mmHg 75%
    22:00 +4°C° 0.1 mm 6 mps 757 mmHg 77%
    23:00 +4°C° 0.1 mm 6 mps 757 mmHg 78%
    Show more